CW3868 Weather Reports


Display with metric or nautical units.
time (UTC)temp
F
wind
direction
speed
MPH
gust
MPH
rain 1hr
in
rain 24hr
in
rain mn
in
humidity
%
barometer
mb
20190421160623 64 164 3.0 14.0 0.00 0.16 0.13 83 1016.7
20190421155623 64 140 3.0 9.0 0.00 0.16 0.13 82 1017.0
20190421154623 64 165 3.0 7.0 0.00 0.16 0.13 82 1017.3
20190421153623 64 204 3.0 9.0 0.00 0.16 0.13 82 1017.3
20190421152623 64 180 2.0 9.0 0.00 0.16 0.13 81 1016.9
20190421151623 65 153 3.0 9.0 0.00 0.17 0.13 79 1016.8
20190421150623 65 143 5.0 8.0 0.00 0.19 0.13 80 1016.6
20190421145623 64 156 4.0 7.0 0.00 0.20 0.13 82 1016.5
20190421144623 63 147 3.0 9.0 0.00 0.21 0.13 83 1016.5
20190421143622 63 140 3.0 6.0 0.00 0.24 0.13 85 1016.7
20190421142623 62 146 2.0 4.0 0.00 0.27 0.13 87 1016.7
20190421141623 61 229 2.0 6.0 0.00 0.31 0.13 87 1016.7
20190421140623 61 236 3.0 4.0 0.00 0.32 0.13 88 1016.8
20190421135623 61 241 2.0 5.0 0.00 0.32 0.13 89 1016.7
20190421134623 60 249 2.0 6.0 0.00 0.32 0.13 90 1016.7
20190421133623 60 246 2.0 4.0 0.00 0.32 0.13 91 1016.7
20190421132623 60 274 1.0 3.0 0.00 0.32 0.13 92 1016.4
20190421131623 60 265 1.0 4.0 0.00 0.32 0.13 93 1016.1
20190421130623 60 265 0.0 2.0 0.00 0.32 0.13 94 1016.4
20190421125623 60 248 1.0 6.0 0.00 0.32 0.13 94 1016.5
20190421124623 60 240 2.0 6.0 0.00 0.32 0.13 95 1016.3
20190421123623 60 245 2.0 4.0 0.00 0.32 0.13 96 1016.4
20190421122623 59 245 1.0 3.0 0.00 0.32 0.13 95 1016.3
20190421121623 59 260 1.0 3.0 0.00 0.32 0.13 96 1016.4
20190421120623 59 283 0.0 2.0 0.00 0.32 0.13 95 1016.3
20190421115623 59 285 0.0 0.0 0.00 0.32 0.13 95 1015.8
20190421114623 59 285 0.0 0.0 0.00 0.32 0.13 95 1015.7
20190421113624 59 285 0.0 0.0 0.00 0.32 0.13 95 1015.5
20190421112623 59 285 0.0 0.0 0.00 0.32 0.13 95 1015.2
20190421111623 59 285 0.0 0.0 0.00 0.32 0.13 95 1015.1
20190421110623 59 285 0.0 3.0 0.00 0.32 0.13 95 1015.3
20190421105623 59 269 1.0 3.0 0.00 0.32 0.13 95 1015.2
20190421104623 59 225 1.0 3.0 0.00 0.32 0.13 95 1015.1
20190421103623 59 223 0.0 3.0 0.00 0.32 0.13 95 1014.7
20190421102624 59 159 0.0 2.0 0.00 0.33 0.13 95 1014.7
20190421101644 59 154 1.0 4.0 0.00 0.33 0.13 95 1015.0
20190421100624 59 196 0.0 3.0 0.00 0.33 0.13 95 1014.6
20190421095623 59 130 1.0 5.0 0.00 0.33 0.13 95 1014.3
20190421094624 59 117 3.0 8.0 0.00 0.33 0.13 95 1014.0
20190421093623 59 139 1.0 3.0 0.00 0.33 0.13 95 1014.2
20190421092624 59 224 0.0 3.0 0.00 0.33 0.13 95 1014.6
20190421090623 59 208 0.0 3.0 0.00 0.35 0.13 95 1014.1
20190421085624 59 173 0.0 3.0 0.00 0.35 0.13 95 1013.8
20190421084623 59 180 1.0 3.0 0.00 0.35 0.13 95 1014.1
20190421083624 59 126 0.0 3.0 0.00 0.35 0.13 95 1014.4
20190421082623 59 186 0.0 2.0 0.00 0.35 0.13 95 1014.7
20190421081624 59 215 0.0 0.0 0.00 0.35 0.13 95 1014.3
20190421080624 59 214 1.0 3.0 0.00 0.35 0.13 95 1014.5
20190421075624 59 166 0.0 0.0 0.00 0.35 0.13 95 1013.9
20190421074623 60 169 0.0 5.0 0.01 0.35 0.13 95 1013.7
20190421073624 60 185 0.0 1.0 0.01 0.35 0.13 95 1013.9
20190421072624 60 163 0.0 2.0 0.01 0.35 0.13 95 1013.8
20190421071623 60 181 0.0 1.0 0.01 0.35 0.13 95 1013.5
20190421070624 60 220 0.0 4.0 0.01 0.35 0.13 94 1013.9
20190421065623 60 239 2.0 5.0 0.00 0.34 0.12 94 1013.7
20190421064624 60 239 1.0 4.0 0.04 0.34 0.12 94 1013.6
20190421063623 60 227 3.0 6.0 0.04 0.34 0.12 94 1013.7
20190421062624 60 227 2.0 7.0 0.03 0.33 0.11 94 1013.5
20190421061624 60 225 3.0 12.0 0.03 0.33 0.11 94 1013.7
20190421060624 61 229 7.0 14.0 0.02 0.32 0.10 94 1013.6
20190421055624 61 257 1.0 3.0 0.01 0.31 0.09 94 1013.2
20190421054624 62 224 0.0 4.0 0.07 0.30 0.08 93 1012.7
20190421053624 63 276 1.0 3.0 0.05 0.28 0.06 93 1013.3
20190421052624 63 232 0.0 2.0 0.03 0.26 0.04 94 1013.5
20190421051624 63 218 0.0 2.0 0.00 0.23 0.01 93 1013.5
20190421050624 63 232 0.0 2.0 0.00 0.23 0.01 93 1013.3
20190421045624 63 151 1.0 2.0 0.00 0.23 0.01 93 1013.4
20190421044624 63 196 0.0 5.0 0.01 0.23 0.01 93 1013.5
20190421043624 63 215 0.0 5.0 0.01 0.25 0.01 92 1013.5
20190421042624 63 243 0.0 7.0 0.01 0.25 0.01 92 1013.5
20190421041624 63 231 1.0 11.0 0.01 0.25 0.01 92 1013.5
20190421040624 64 196 3.0 11.0 0.01 0.25 0.01 91 1013.7
20190421035624 64 151 2.0 9.0 0.01 0.25 0.01 91 1013.6
20190421034624 64 164 3.0 8.0 0.00 0.24 0.24 91 1013.8
20190421033624 65 214 5.0 10.0 0.00 0.24 0.24 90 1013.5
20190421032624 65 174 5.0 10.0 0.00 0.24 0.24 90 1013.6
20190421031624 65 170 2.0 17.0 0.00 0.24 0.24 91 1013.6
20190421030625 65 176 2.0 13.0 0.00 0.24 0.24 91 1013.7
20190421025624 65 205 3.0 14.0 0.00 0.24 0.24 91 1013.9
20190421024624 65 182 3.0 12.0 0.00 0.24 0.24 91 1013.6
20190421023624 65 161 5.0 20.0 0.00 0.24 0.24 91 1012.9
20190421022625 65 227 0.0 12.0 0.00 0.24 0.24 92 1013.6
20190421021624 65 274 0.0 6.0 0.00 0.24 0.24 92 1013.2
20190421020625 65 187 0.0 8.0 0.00 0.24 0.24 92 1013.2
20190421015624 65 190 2.0 15.0 0.00 0.24 0.24 92 1013.3
20190421014624 65 142 1.0 10.0 0.01 0.24 0.24 93 1013.4
20190421013624 65 238 1.0 13.0 0.01 0.24 0.24 93 1013.6
20190421012624 65 182 2.0 13.0 0.01 0.24 0.24 93 1012.9
20190421011624 65 169 0.0 15.0 0.01 0.24 0.24 93 1012.5
20190421010624 65 162 2.0 15.0 0.01 0.24 0.24 93 1012.5
20190421005624 65 140 2.0 11.0 0.00 0.23 0.23 93 1012.2
20190421004624 65 208 0.0 12.0 0.01 0.23 0.23 92 1012.3
20190421003625 65 178 1.0 11.0 0.01 0.23 0.23 92 1012.6
20190421002624 65 154 0.0 10.0 0.01 0.23 0.23 92 1013.0
20190421001627 65 172 1.0 8.0 0.01 0.23 0.23 91 1013.2
20190421000705 65 194 3.0 7.0 0.00 0.22 0.22 91 1013.1
20190420235625 65 214 3.0 11.0 0.00 0.22 0.22 90 1013.0
20190420234624 65 183 5.0 13.0 0.01 0.22 0.22 89 1013.0
20190420233624 66 178 5.0 14.0 0.00 0.21 0.21 88 1012.7
20190420232625 66 171 4.0 15.0 0.00 0.21 0.21 88 1012.6
20190420231624 66 183 4.0 11.0 0.00 0.21 0.21 88 1012.3
20190420230624 67 171 5.0 11.0 0.00 0.21 0.21 88 1012.4
20190420225624 67 162 6.0 13.0 0.00 0.21 0.21 87 1012.0
20190420224625 67 205 3.0 14.0 0.00 0.21 0.21 86 1012.1
20190420223624 68 213 3.0 14.0 0.00 0.21 0.21 84 1012.0
20190420222625 68 202 4.0 17.0 0.00 0.21 0.21 83 1011.9
20190420221624 69 215 6.0 19.0 0.00 0.21 0.21 82 1012.2
20190420220625 69 214 9.0 19.0 0.00 0.21 0.21 83 1012.4
20190420215624 69 220 6.0 15.0 0.00 0.21 0.21 83 1012.4
20190420214625 69 203 10.0 20.0 0.00 0.21 0.21 83 1012.3
20190420213624 70 221 9.0 23.0 0.00 0.21 0.21 83 1012.2
20190420212625 70 208 11.0 22.0 0.00 0.21 0.21 82 1012.0
20190420211624 70 223 9.0 17.0 0.00 0.21 0.21 81 1011.5
20190420210625 70 222 6.0 17.0 0.00 0.21 0.21 81 1011.5
20190420205625 70 214 6.0 19.0 0.00 0.21 0.21 81 1011.2
20190420204624 70 214 7.0 17.0 0.00 0.21 0.21 82 1010.9
20190420203625 70 229 10.0 20.0 0.00 0.21 0.21 82 1011.4
20190420202624 70 213 10.0 19.0 0.00 0.21 0.21 81 1010.8
20190420201625 71 212 5.0 16.0 0.00 0.21 0.21 79 1010.8
20190420200624 71 227 9.0 15.0 0.00 0.21 0.21 79 1009.9
20190420195625 71 225 11.0 20.0 0.00 0.21 0.21 78 1010.3
20190420194644 71 222 6.0 18.0 0.00 0.21 0.21 78 1010.4
20190420193625 71 222 8.0 17.0 0.00 0.21 0.21 77 1010.5
20190420192625 72 211 11.0 25.0 0.00 0.21 0.21 77 1010.6
20190420191625 71 213 10.0 18.0 0.00 0.21 0.21 79 1010.5
20190420190625 71 199 11.0 25.0 0.00 0.21 0.21 81 1010.1
20190420185625 71 202 7.0 18.0 0.00 0.21 0.21 83 1010.1
20190420184625 71 172 8.0 20.0 0.00 0.21 0.21 85 1010.0
20190420183625 70 181 8.0 16.0 0.00 0.21 0.21 86 1010.3
20190420182625 70 178 7.0 17.0 0.00 0.21 0.21 87 1010.4
20190420181625 70 200 5.0 22.0 0.00 0.21 0.21 86 1010.9
20190420180625 71 177 7.0 15.0 0.00 0.21 0.21 86 1011.2
20190420175625 71 223 6.0 15.0 0.00 0.21 0.21 87 1011.2
20190420173627 70 209 10.0 17.0 0.00 0.21 0.21 88 1011.0
20190420172625 70 221 4.0 17.0 0.00 0.21 0.21 90 1011.1
20190420171625 69 215 5.0 11.0 0.00 0.21 0.21 91 1011.2
20190420170625 69 196 4.0 17.0 0.00 0.21 0.21 92 1011.4
20190420165625 68 196 7.0 13.0 0.00 0.21 0.21 93 1011.3
20190420164625 68 182 3.0 10.0 0.00 0.21 0.21 93 1011.2
20190420163625 68 193 2.0 13.0 0.00 0.21 0.21 94 1011.4
20190420162625 67 182 1.0 11.0 0.00 0.21 0.21 94 1011.4
20190420161625 67 211 1.0 12.0 0.00 0.21 0.21 94 1011.5